[[{"header":{"parameterUnit":"m.s-1","parameterCategory":2,"la1":30.2991,"la2":30.254,"lo1":-89.0895,"lo2":-89.0444,"dy":0.0017,"dx":0.0017,"nx":28,"ny":28,"refTime":"2025-12-17T03:00:00:Z","depth":"0","parameterNumber":2,"parameterNumberName":"U-component_of_CURRENTS"},"data":[0,0,0,0,0,0,0,0,0,0,0,0,0,0,0,0,0,0,0,0,0,0,0,0,0,0,0,0,0,0,0,0,0,0,0,0,0,0,0,0,0,0,0,0,0,0,0,0,0,0,0,0,0,0,0,0,0,0,-0.2089,-0.209,0,-0.2134,-0.2135,-0.2135,-0.2119,-0.2118,-0.2117,-0.2117,-0.2054,-0.2053,-0.2052,0,0,0,0,0,0,0,0,0,0,0,0,0,-0.1946,-0.1949,-0.2089,-0.209,-0.2091,-0.2134,-0.2135,-0.2135,-0.2119,-0.2118,-0.2117,-0.2116,-0.2055,-0.2054,-0.2052,0,0,0,0,0,0,0,0,0,0,0,0,0,-0.1998,-0.1949,-0.2089,-0.2091,-0.2092,-0.2134,-0.2135,-0.2135,-0.2119,-0.2118,-0.2117,-0.2116,-0.2055,-0.2054,-0.2052,-0.2063,0,0,-0.2047,-0.2047,0,0,0,0,0,0,0,0,-0.1995,-0.2003,-0.209,-0.2091,-0.2092,-0.2123,-0.2061,-0.2107,-0.2119,-0.2105,-0.2117,-0.2116,-0.207,-0.2068,-0.2075,-0.206,-0.2058,-0.2047,-0.2046,-0.2046,-0.2045,0,0,0,0,0,0,0,-0.1992,-0.2001,-0.2103,-0.2091,-0.2092,-0.2075,-0.2081,-0.207,-0.2088,-0.2106,-0.2106,-0.2117,-0.207,-0.2077,-0.2073,-0.2057,-0.2047,-0.2046,-0.2045,-0.2044,-0.2049,-0.205,0,0,0,0,0,0,-0.1997,-0.1998,-0.2102,-0.2105,-0.2044,-0.2079,-0.2085,-0.2111,-0.2091,-0.2088,-0.2118,-0.2116,-0.208,-0.2075,-0.2071,-0.2098,-0.2046,-0.2044,-0.2043,-0.2048,-0.205,-0.2051,0,0,0,0,0,0,-0.1994,-0.2007,-0.21,-0.2054,-0.2065,-0.2083,-0.2111,-0.2113,-0.2116,-0.2101,-0.2096,-0.212,-0.2079,-0.2073,-0.2068,-0.2095,-0.2044,-0.2042,-0.2047,-0.2049,-0.205,-0.2142,0,0,0,0,0,0,-0.199,-0.2006,-0.2019,-0.2055,-0.2068,-0.2132,-0.2113,-0.2114,-0.2127,-0.2125,-0.2102,-0.2095,-0.2077,-0.2071,-0.2067,-0.2092,-0.2041,-0.2046,-0.2048,-0.205,-0.2138,-0.2147,-0.2154,0,0,0,0,0,-0.1985,-0.2012,-0.202,-0.2032,-0.2089,-0.2133,-0.2138,-0.2143,-0.2128,-0.214,-0.2124,-0.2096,-0.208,-0.2071,-0.2065,-0.2091,-0.2045,-0.2047,-0.205,-0.2134,-0.2145,-0.2154,0,0,0,0,0,0,-0.1953,-0.2014,-0.2023,-0.2066,-0.2099,-0.2132,-0.2142,-0.2146,-0.2145,-0.2135,-0.211,-0.2103,-0.2106,-0.2086,-0.2076,-0.2097,-0.2058,-0.2059,-0.2124,-0.2134,-0.2142,-0.2152,-0.204,0,0,0,0,0,-0.1956,-0.1988,-0.2042,-0.2071,-0.2093,-0.2116,-0.213,-0.2141,-0.215,-0.2149,-0.2135,-0.2119,-0.2114,-0.2113,-0.2099,-0.2114,-0.2097,-0.2126,-0.2135,-0.2142,-0.2146,-0.2196,-0.221,-0.2059,-0.2059,-0.2058,0,0,-0.1946,-0.1986,-0.2001,-0.2065,-0.2088,-0.213,-0.2121,-0.2153,-0.218,-0.2141,-0.2157,-0.214,-0.2122,-0.2139,-0.2139,-0.2126,-0.2163,-0.2145,-0.2151,-0.2152,-0.22,-0.2215,-0.2228,-0.206,-0.206,-0.206,0,0,-0.1952,-0.1986,-0.2019,-0.2057,-0.2108,-0.2133,-0.2144,-0.2183,-0.2193,-0.2214,-0.2193,-0.2206,-0.2185,-0.2201,-0.2199,-0.2246,-0.22,-0.2226,-0.2286,-0.2335,-0.2349,-0.236,-0.2308,-0.2315,-0.224,-0.224,-0.224,0,-0.1935,-0.1994,-0.2031,-0.2079,-0.2115,-0.2137,-0.2184,-0.2204,-0.2232,-0.2262,-0.2224,-0.225,-0.2225,-0.2281,-0.2284,-0.2269,-0.2247,-0.2253,-0.2349,-0.236,-0.2371,-0.2315,-0.2321,-0.2245,-0.2244,-0.2244,-0.2243,0,-0.1974,-0.202,-0.2043,-0.2115,-0.2159,-0.2199,-0.2251,-0.2286,-0.2293,-0.2322,-0.2368,-0.235,-0.2372,-0.2366,-0.2327,-0.2396,-0.2334,-0.2349,-0.2329,-0.2392,-0.2327,-0.2332,-0.2251,-0.225,-0.2248,-0.2247,0,0,-0.1932,-0.2049,-0.2053,-0.2107,-0.2185,-0.2232,-0.2294,-0.2375,-0.2436,-0.2445,-0.2518,-0.2509,-0.2505,-0.2502,-0.2478,-0.2508,-0.2532,-0.245,-0.245,-0.2404,-0.2561,-0.2484,-0.248,-0.2568,-0.2571,-0.2573,-0.2468,0,-0.1946,-0.2035,-0.2099,-0.2188,-0.2241,-0.2312,-0.2382,-0.2458,-0.2502,-0.2572,-0.2587,-0.2623,-0.2557,-0.2565,-0.2591,-0.2543,-0.2556,-0.2553,-0.25,-0.2496,-0.243,-0.249,-0.2372,-0.2269,-0.2473,-0.2473,-0.2474,0,-0.196,-0.2023,-0.2106,-0.2255,-0.229,-0.235,-0.249,-0.2557,-0.2666,-0.2702,-0.2755,-0.275,-0.2769,-0.2716,-0.2689,-0.2683,-0.2623,-0.2588,-0.2585,-0.249,-0.2432,-0.2248,-0.2269,-0.2248,-0.248,-0.248,-0.2479,0,-0.1902,-0.2037,-0.2104,-0.2146,-0.2304,-0.2372,-0.246,-0.2589,-0.2666,-0.2775,-0.2816,-0.2862,-0.2837,-0.283,-0.2701,-0.2707,-0.2652,-0.2667,-0.2543,-0.2532,-0.241,-0.2386,-0.2417,-0.2682,-0.2682,-0.2683,-0.2683,0,-0.189,-0.1945,-0.2086,-0.2119,-0.224,-0.2358,-0.2494,-0.2592,-0.2725,-0.2785,-0.2859,-0.2867,-0.2864,-0.2814,-0.2742,-0.2619,-0.2684,-0.2552,-0.2528,-0.2429,-0.241,-0.2367,-0.2388,-0.2678,-0.2679,-0.268,-0.2681,0,-0.1803,-0.1891,-0.198,-0.2144,-0.2209,-0.2286,-0.2495,-0.2587,-0.271,-0.278,-0.2803,-0.2852,-0.2778,-0.2749,-0.2687,-0.2628,-0.2512,-0.2506,-0.2332,-0.2292,-0.2195,-0.2224,-0.2217,-0.2156,-0.2384,-0.2382,-0.238,0,-0.1766,-0.1793,-0.196,-0.2023,-0.2096,-0.2242,-0.2348,-0.2542,-0.2624,-0.2724,-0.273,-0.2711,-0.2642,-0.2541,-0.2465,-0.2369,-0.2382,-0.222,-0.2254,-0.218,-0.2196,-0.2225,-0.2177,-0.2087,-0.2083,-0.2079,-0.2077,0,-0.1676,-0.1723,-0.1792,-0.1912,-0.2025,-0.2172,-0.232,-0.2385,-0.2551,-0.2577,-0.2543,-0.2499,-0.2422,-0.228,-0.2207,-0.2139,-0.2182,-0.2151,-0.2155,-0.2038,-0.1995,-0.1925,-0.2099,-0.2048,-0.205,-0.2053,-0.2054,-0.2055,-0.1588,-0.1604,-0.1684,-0.1794,-0.1921,-0.2032,-0.2088,-0.2201,-0.2254,-0.2246,-0.2296,-0.2193,-0.2151,-0.2037,-0.197,-0.1863,-0.1949,-0.1829,-0.1878,-0.192,-0.1863,-0.1932,-0.1826,-0.1828,-0.1829,-0.183,-0.1831,0,-0.1475,-0.1499,-0.1575,-0.1687,-0.1744,-0.1874,-0.2016,-0.2003,-0.195,-0.1985,-0.1926,-0.1879,-0.1772,-0.1764,-0.1688,-0.162,-0.159,-0.1596,-0.1621,-0.1592,-0.17,-0.169,-0.1455,-0.1456,-0.1456,-0.1456,-0.1456,-0.1456,-0.142,-0.141,-0.1441,-0.1466,-0.1542,-0.1569,-0.1605,-0.1572,-0.1591,-0.1494,-0.1493,-0.1554,-0.1584,-0.1708,-0.1604,-0.1521,-0.1504,-0.145,-0.1503,-0.1593,-0.1619,-0.1644,-0.164,-0.1399,-0.1399,-0.1315,-0.1315,-0.1314]},{"header":{"parameterUnit":"m.s-1","parameterCategory":2,"la1":30.2991,"la2":30.254,"lo1":-89.0895,"lo2":-89.0444,"dy":0.0017,"dx":0.0017,"nx":28,"ny":28,"refTime":"2025-12-17T03:00:00:Z","depth":"0","parameterNumber":3,"parameterNumberName":"V-component_of_CURRENTS"},"data":[0,0,0,0,0,0,0,0,0,0,0,0,0,0,0,0,0,0,0,0,0,0,0,0,0,0,0,0,0,0,0,0,0,0,0,0,0,0,0,0,0,0,0,0,0,0,0,0,0,0,0,0,0,0,0,0,0,0,0.0068,0.0069,0,0.0168,0.0169,0.0171,0.025,0.0251,0.0251,0.0252,0.0389,0.0392,0.0395,0,0,0,0,0,0,0,0,0,0,0,0,0,0.0016,0.0016,0.0068,0.0069,0.007,0.0168,0.0169,0.0171,0.025,0.0251,0.0251,0.0252,0.0388,0.0392,0.0396,0,0,0,0,0,0,0,0,0,0,0,0,0,0.0071,0.0017,0.0068,0.012,0.0125,0.0167,0.0169,0.0171,0.025,0.0251,0.0252,0.0252,0.0387,0.0391,0.0396,0.0406,0,0,0.041,0.0412,0,0,0,0,0,0,0,0,0.0068,0.0073,0.0111,0.0116,0.0122,0.0196,0.0201,0.0251,0.025,0.0205,0.0252,0.0253,0.0326,0.0336,0.0355,0.0413,0.0419,0.0411,0.0413,0.0415,0.0417,0,0,0,0,0,0,0,0.0064,0.007,0.011,0.0112,0.0119,0.0162,0.0171,0.0212,0.0261,0.0209,0.0214,0.0222,0.033,0.035,0.0359,0.0421,0.0411,0.0415,0.0418,0.0419,0.0514,0.0513,0,0,0,0,0,0,0.0043,0.0066,0.0106,0.0112,0.0095,0.0162,0.0172,0.0173,0.026,0.0273,0.0221,0.0225,0.0342,0.0353,0.0364,0.0379,0.0415,0.042,0.0422,0.0514,0.0514,0.0513,0,0,0,0,0,0,0.0041,0.0045,0.0102,0.009,0.01,0.0161,0.0163,0.0174,0.0195,0.0269,0.0283,0.0229,0.0343,0.0357,0.0398,0.0385,0.0422,0.0426,0.0514,0.0514,0.0513,0.0411,0,0,0,0,0,0,0.0039,0.0044,0.0035,0.0088,0.01,0.0114,0.0162,0.0176,0.0197,0.0204,0.028,0.0294,0.0345,0.039,0.0402,0.0392,0.043,0.0515,0.0514,0.0514,0.0415,0.0407,0.0401,0,0,0,0,0,0.0037,0.0016,0.0034,0.0039,0.0087,0.0113,0.0123,0.0172,0.0196,0.0196,0.0252,0.0292,0.0396,0.0394,0.0408,0.0399,0.0515,0.0514,0.0514,0.0418,0.0409,0.0401,0,0,0,0,0,0,-0.0016,0.0024,0.0044,0.0035,0.0067,0.0126,0.0128,0.0162,0.0206,0.0214,0.0288,0.0305,0.0336,0.0381,0.0377,0.0426,0.0462,0.0464,0.0384,0.0376,0.0369,0.0356,0.0434,0,0,0,0,0,-0.0033,-0.0035,0.0011,0.0002,0.0014,0.007,0.0086,0.0118,0.0165,0.0186,0.024,0.0298,0.0344,0.037,0.0418,0.0441,0.049,0.0446,0.0438,0.0432,0.0432,0.0491,0.0489,0.0511,0.0511,0.0511,0,0,-0.0057,-0.0035,-0.0036,-0.0009,0.0021,0.0026,0.0082,0.0098,0.0107,0.0192,0.0219,0.0273,0.0345,0.0374,0.0392,0.041,0.045,0.0431,0.0425,0.0428,0.049,0.0488,0.0486,0.0511,0.0511,0.0511,0,0,-0.0107,-0.0086,-0.0103,-0.0082,-0.0048,-0.0013,-0.0014,0.0039,0.0069,0.01,0.0164,0.021,0.0278,0.0329,0.0363,0.0346,0.041,0.0358,0.0312,0.0369,0.0367,0.0367,0.0414,0.0418,0.0355,0.0355,0.0355,0,-0.0138,-0.0151,-0.0105,-0.0114,-0.0106,-0.0038,-0.0054,-0.0016,0.0045,0.0066,0.0094,0.0201,0.0258,0.0303,0.03,0.0329,0.0369,0.0334,0.0358,0.0359,0.036,0.0409,0.0415,0.035,0.035,0.0351,0.0351,0,-0.0194,-0.0204,-0.0214,-0.0201,-0.0186,-0.0191,-0.0135,-0.0114,-0.0069,-0.0022,0.003,0.0114,0.018,0.0201,0.0248,0.028,0.0308,0.0339,0.0374,0.0351,0.0404,0.0413,0.0343,0.0344,0.0346,0.0347,0,0,-0.026,-0.0257,-0.0258,-0.0275,-0.0234,-0.0234,-0.0215,-0.018,-0.0165,-0.0097,-0.0066,0.0014,0.0071,0.0114,0.0179,0.0228,0.0268,0.0279,0.0284,0.0315,0.0387,0.043,0.0443,0.0301,0.0302,0.0303,0.0416,0,-0.0317,-0.0368,-0.0338,-0.0381,-0.0403,-0.034,-0.0331,-0.0285,-0.0223,-0.0173,-0.0077,-0.0023,0.0035,0.0069,0.0126,0.0244,0.0287,0.0234,0.0414,0.0419,0.0452,0.0454,0.0493,0.0599,0.0424,0.0426,0.0427,0,-0.0373,-0.0403,-0.046,-0.0478,-0.048,-0.0488,-0.0457,-0.0437,-0.034,-0.029,-0.021,-0.0118,-0.0023,0.0027,0.0198,0.0162,0.0259,0.0343,0.035,0.0434,0.0478,0.0599,0.0622,0.0779,0.044,0.0439,0.0438,0,-0.0445,-0.0485,-0.0539,-0.0544,-0.0548,-0.0557,-0.0548,-0.0475,-0.0456,-0.0354,-0.0316,-0.0187,-0.0103,0.0026,0.0212,0.0206,0.0405,0.0423,0.0546,0.055,0.0643,0.0654,0.0835,0.0526,0.0526,0.0526,0.0525,0,-0.0514,-0.0556,-0.0582,-0.0614,-0.068,-0.0639,-0.0667,-0.0628,-0.0554,-0.0518,-0.0382,-0.0311,-0.0098,0.0054,0.0197,0.0407,0.0397,0.0543,0.0586,0.0608,0.0613,0.0804,0.0858,0.053,0.0529,0.0528,0.0528,0,-0.0573,-0.0588,-0.0662,-0.0698,-0.0717,-0.0759,-0.0769,-0.0773,-0.0687,-0.0627,-0.0595,-0.0392,-0.0181,0.0026,0.027,0.0399,0.0686,0.065,0.0657,0.0699,0.0951,0.0996,0.1214,0.1309,0.0803,0.0805,0.0806,0,-0.0604,-0.0648,-0.0738,-0.0798,-0.0821,-0.0874,-0.0905,-0.0853,-0.0836,-0.0666,-0.0635,-0.041,-0.0225,0.0142,0.0404,0.0663,0.0778,0.0842,0.0838,0.0979,0.1062,0.1091,0.1157,0.092,0.0922,0.0924,0.0925,0,-0.0666,-0.0698,-0.0765,-0.0898,-0.0965,-0.1031,-0.1054,-0.1053,-0.0946,-0.0846,-0.0659,-0.0489,-0.011,0.0239,0.0577,0.0732,0.0965,0.0888,0.1047,0.118,0.1213,0.132,0.0821,0.0942,0.0941,0.0939,0.0938,0.0938,-0.0706,-0.0777,-0.0877,-0.1002,-0.1089,-0.1153,-0.1174,-0.113,-0.1061,-0.0845,-0.0686,-0.0369,0.0106,0.0606,0.078,0.1165,0.1121,0.1286,0.1332,0.1351,0.1441,0.0968,0.1128,0.1127,0.1126,0.1126,0.1126,0,-0.0759,-0.0849,-0.0976,-0.1118,-0.1225,-0.1241,-0.125,-0.1197,-0.1071,-0.0819,-0.0587,-0.0016,0.0449,0.0867,0.139,0.1603,0.1646,0.1707,0.1769,0.1818,0.1425,0.1429,0.1646,0.1646,0.1646,0.1646,0.1646,0.1645,-0.0795,-0.0926,-0.1007,-0.1209,-0.1296,-0.1368,-0.1354,-0.12,-0.1006,-0.0567,-0.0199,0.0085,0.0666,0.1484,0.1971,0.2017,0.22,0.2179,0.2274,0.2011,0.1975,0.1941,0.1961,0.2286,0.2286,0.2663,0.2667,0.267]}],[{"header":{"parameterUnit":"m.s-1","parameterCategory":2,"la1":30.2991,"la2":30.254,"lo1":-89.0895,"lo2":-89.0444,"dy":0.0017,"dx":0.0017,"nx":28,"ny":28,"refTime":"2025-12-17T03:00:00:Z","depth":"2","parameterNumber":2,"parameterNumberName":"U-component_of_CURRENTS"},"data":[0,0,0,0,0,0,0,0,0,0,0,0,0,0,0,0,0,0,0,0,0,0,0,0,0,0,0,0,0,0,0,0,0,0,0,0,0,0,0,0,0,0,0,0,0,0,0,0,0,0,0,0,0,0,0,0,0,0,-0.2043,-0.2044,0,-0.2026,-0.2025,-0.2024,-0.2004,-0.2004,-0.2005,-0.2005,-0.2011,-0.2011,-0.2011,0,0,0,0,0,0,0,0,0,0,0,0,0,-0.2011,-0.2011,-0.2043,-0.2044,-0.2044,-0.2026,-0.2025,-0.2024,-0.2004,-0.2004,-0.2005,-0.2005,-0.2011,-0.2011,-0.2011,0,0,0,0,0,0,0,0,0,0,0,0,0,-0.2005,-0.2011,-0.2043,-0.2038,-0.2038,-0.2026,-0.2025,-0.2024,-0.2003,-0.2004,-0.2005,-0.2005,-0.2012,-0.2011,-0.2011,-0.1994,0,0,-0.201,-0.2009,0,0,0,0,0,0,0,0,-0.2005,-0.2005,-0.2038,-0.2039,-0.2039,-0.2025,-0.2017,-0.2018,-0.2003,-0.2008,-0.2005,-0.2006,-0.2023,-0.2022,-0.2005,-0.1995,-0.1995,-0.201,-0.2009,-0.2009,-0.2009,0,0,0,0,0,0,0,-0.2005,-0.2005,-0.2028,-0.2039,-0.2039,-0.2021,-0.2021,-0.2016,-0.2005,-0.2007,-0.2008,-0.2019,-0.2022,-0.2005,-0.2005,-0.1995,-0.201,-0.2009,-0.2009,-0.2009,-0.2024,-0.2024,0,0,0,0,0,0,-0.2027,-0.2006,-0.2028,-0.2028,-0.2033,-0.2022,-0.2021,-0.2022,-0.2005,-0.2005,-0.2019,-0.2019,-0.2005,-0.2005,-0.2005,-0.205,-0.2009,-0.2009,-0.2009,-0.2023,-0.2024,-0.2024,0,0,0,0,0,0,-0.2026,-0.2028,-0.2029,-0.2024,-0.2024,-0.2023,-0.2023,-0.2021,-0.2031,-0.2015,-0.2014,-0.2035,-0.2006,-0.2006,-0.2031,-0.2048,-0.2009,-0.2008,-0.2022,-0.2023,-0.2024,-0.2099,0,0,0,0,0,0,-0.2024,-0.2027,-0.2041,-0.2025,-0.2025,-0.204,-0.2024,-0.2021,-0.204,-0.2039,-0.2029,-0.2028,-0.2006,-0.2032,-0.203,-0.2047,-0.2008,-0.2021,-0.2023,-0.2024,-0.2096,-0.2102,-0.2108,0,0,0,0,0,-0.2023,-0.2033,-0.2041,-0.2045,-0.2041,-0.2041,-0.2039,-0.2034,-0.204,-0.2045,-0.2049,-0.203,-0.2037,-0.2033,-0.2031,-0.2047,-0.2021,-0.2022,-0.2024,-0.2093,-0.2101,-0.2108,0,0,0,0,0,0,-0.2023,-0.2032,-0.204,-0.2053,-0.206,-0.2042,-0.2051,-0.2053,-0.2055,-0.2065,-0.2046,-0.2046,-0.2069,-0.205,-0.2045,-0.2053,-0.2022,-0.2024,-0.2075,-0.2083,-0.2089,-0.2108,-0.2008,0,0,0,0,0,-0.2033,-0.2044,-0.2051,-0.2064,-0.2072,-0.2069,-0.2073,-0.2074,-0.2075,-0.2076,-0.2073,-0.2068,-0.2066,-0.2072,-0.2061,-0.2076,-0.2055,-0.2081,-0.2088,-0.2093,-0.2107,-0.2141,-0.2153,-0.2029,-0.2029,-0.2029,0,0,-0.2037,-0.2047,-0.2052,-0.2066,-0.2069,-0.2086,-0.2071,-0.2087,-0.2107,-0.2078,-0.2106,-0.2094,-0.2075,-0.2086,-0.2094,-0.2079,-0.2101,-0.2095,-0.21,-0.2111,-0.2144,-0.2157,-0.2168,-0.203,-0.203,-0.203,0,0,-0.2049,-0.206,-0.2076,-0.2088,-0.2112,-0.2111,-0.2128,-0.2129,-0.2138,-0.2159,-0.2145,-0.2164,-0.2146,-0.2148,-0.2144,-0.2182,-0.2134,-0.216,-0.2212,-0.2246,-0.2257,-0.2266,-0.2189,-0.2192,-0.2165,-0.2165,-0.2165,0,-0.2055,-0.2078,-0.2081,-0.2104,-0.2125,-0.2132,-0.2159,-0.2164,-0.2176,-0.2207,-0.218,-0.2204,-0.218,-0.2225,-0.2215,-0.2201,-0.2169,-0.2187,-0.2256,-0.2266,-0.2275,-0.2194,-0.2196,-0.2169,-0.2168,-0.2168,-0.2167,0,-0.2078,-0.2106,-0.2117,-0.2151,-0.2171,-0.2193,-0.2214,-0.2243,-0.2256,-0.2272,-0.2322,-0.2298,-0.2316,-0.2299,-0.2257,-0.2308,-0.2242,-0.2262,-0.2244,-0.2293,-0.2202,-0.2203,-0.2174,-0.2173,-0.2171,-0.2171,0,0,-0.2056,-0.2123,-0.2126,-0.2166,-0.2202,-0.2222,-0.2271,-0.2325,-0.2382,-0.239,-0.244,-0.2439,-0.2439,-0.2432,-0.24,-0.2411,-0.2401,-0.235,-0.235,-0.2281,-0.239,-0.2336,-0.233,-0.2439,-0.2441,-0.2443,-0.2277,0,-0.2075,-0.2137,-0.216,-0.2225,-0.2263,-0.2297,-0.2346,-0.2402,-0.2436,-0.2479,-0.2493,-0.2521,-0.2487,-0.2485,-0.25,-0.2409,-0.2417,-0.2439,-0.2346,-0.2341,-0.2299,-0.2337,-0.2159,-0.2,-0.2278,-0.2278,-0.2278,0,-0.2079,-0.2132,-0.2195,-0.2292,-0.2313,-0.2347,-0.2449,-0.2495,-0.2568,-0.2592,-0.2645,-0.2638,-0.2628,-0.2601,-0.2539,-0.2546,-0.2483,-0.2428,-0.2421,-0.2357,-0.2294,-0.2009,-0.199,-0.2278,-0.2278,-0.2278,-0.2278,0,-0.2062,-0.2151,-0.221,-0.2236,-0.2339,-0.2384,-0.2442,-0.2535,-0.2556,-0.266,-0.2651,-0.2711,-0.2652,-0.265,-0.2521,-0.2526,-0.2428,-0.243,-0.2337,-0.2326,-0.2152,-0.2125,-0.2451,-0.2452,-0.2452,-0.2452,-0.2453,0,-0.2057,-0.2108,-0.2211,-0.2241,-0.2324,-0.2399,-0.2471,-0.2556,-0.2599,-0.261,-0.2695,-0.2671,-0.2664,-0.2597,-0.2535,-0.2405,-0.2452,-0.2345,-0.2312,-0.2162,-0.214,-0.2383,-0.2377,-0.2446,-0.2447,-0.2449,-0.245,0,-0.2016,-0.2078,-0.2158,-0.2278,-0.2308,-0.2369,-0.2427,-0.2453,-0.2541,-0.2532,-0.2544,-0.257,-0.251,-0.2488,-0.2419,-0.2371,-0.2303,-0.2271,-0.204,-0.1987,-0.2155,-0.2155,-0.2123,-0.2121,-0.2119,-0.2117,-0.2115,0,-0.2002,-0.2039,-0.2157,-0.2177,-0.2222,-0.2297,-0.2307,-0.2403,-0.2396,-0.2455,-0.2403,-0.2393,-0.2345,-0.2225,-0.2183,-0.2099,-0.2206,-0.191,-0.1944,-0.2167,-0.2136,-0.214,-0.2142,-0.168,-0.1675,-0.1671,-0.1668,0,-0.1962,-0.2,-0.204,-0.2094,-0.211,-0.2147,-0.2173,-0.2133,-0.2214,-0.2211,-0.2184,-0.217,-0.21,-0.1954,-0.1903,-0.1845,-0.1917,-0.1826,-0.2131,-0.1829,-0.1748,-0.1719,-0.1736,-0.1631,-0.1635,-0.1638,-0.164,-0.1641,-0.1897,-0.1903,-0.1928,-0.1968,-0.2005,-0.1981,-0.1913,-0.1927,-0.1888,-0.1848,-0.1922,-0.1855,-0.1848,-0.1674,-0.1593,-0.1546,-0.1681,-0.1613,-0.1625,-0.1642,-0.166,-0.1585,-0.1431,-0.1433,-0.1435,-0.1437,-0.1439,0,-0.1784,-0.1782,-0.1795,-0.1793,-0.1764,-0.1851,-0.1792,-0.1695,-0.1598,-0.1615,-0.1597,-0.1436,-0.1346,-0.1358,-0.1224,-0.1214,-0.12,-0.117,-0.1148,-0.1183,-0.1215,-0.1213,-0.0864,-0.0863,-0.0862,-0.086,0,0,-0.1699,-0.1655,-0.1651,-0.1545,-0.1553,-0.1425,-0.1363,-0.1301,-0.1276,-0.1192,-0.1159,-0.1253,-0.1294,-0.1072,-0.1029,-0.0924,-0.1041,-0.0875,-0.133,-0.1337,-0.1367,-0.1461,-0.1497,0,0,0,0,0]},{"header":{"parameterUnit":"m.s-1","parameterCategory":2,"la1":30.2991,"la2":30.254,"lo1":-89.0895,"lo2":-89.0444,"dy":0.0017,"dx":0.0017,"nx":28,"ny":28,"refTime":"2025-12-17T03:00:00:Z","depth":"2","parameterNumber":3,"parameterNumberName":"V-component_of_CURRENTS"},"data":[0,0,0,0,0,0,0,0,0,0,0,0,0,0,0,0,0,0,0,0,0,0,0,0,0,0,0,0,0,0,0,0,0,0,0,0,0,0,0,0,0,0,0,0,0,0,0,0,0,0,0,0,0,0,0,0,0,0,-0.0167,-0.0166,0,-0.007,-0.0068,-0.0067,-0.003,-0.0031,-0.0031,-0.0031,0.005,0.0053,0.0055,0,0,0,0,0,0,0,0,0,0,0,0,0,-0.0279,-0.0277,-0.0167,-0.0166,-0.0165,-0.007,-0.0068,-0.0067,-0.003,-0.0031,-0.0031,-0.0032,0.0049,0.0052,0.0055,0,0,0,0,0,0,0,0,0,0,0,0,0,-0.0209,-0.0276,-0.0168,-0.0137,-0.0133,-0.007,-0.0068,-0.0066,-0.003,-0.0031,-0.0031,-0.0032,0.0048,0.0052,0.0056,0.0095,0,0,0.0068,0.0069,0,0,0,0,0,0,0,0,-0.0213,-0.0204,-0.0143,-0.0139,-0.0135,-0.0065,-0.0078,-0.0014,-0.003,-0.0067,-0.0031,-0.0032,0.0009,0.0016,0.004,0.0098,0.0102,0.0068,0.0071,0.0072,0.0073,0,0,0,0,0,0,0,-0.0218,-0.0208,-0.0127,-0.0141,-0.0137,-0.0113,-0.0105,-0.0065,-0.0025,-0.0064,-0.0061,-0.0054,0.0011,0.0036,0.0042,0.0103,0.0068,0.0072,0.0074,0.0075,0.0178,0.0178,0,0,0,0,0,0,-0.0235,-0.0213,-0.013,-0.0124,-0.0179,-0.0111,-0.0101,-0.0085,-0.0025,-0.0017,-0.0053,-0.0052,0.0029,0.0037,0.0045,0.0063,0.0072,0.0076,0.0078,0.0178,0.0178,0.0178,0,0,0,0,0,0,-0.0238,-0.0228,-0.0134,-0.0169,-0.0155,-0.0109,-0.0091,-0.0083,-0.0072,-0.0017,-0.0009,-0.0053,0.0029,0.0039,0.0073,0.0067,0.0078,0.0081,0.0177,0.0178,0.0178,0.0119,0,0,0,0,0,0,-0.0241,-0.0229,-0.0236,-0.0169,-0.0154,-0.0105,-0.009,-0.008,-0.0066,-0.0065,-0.0014,-0.0006,0.0029,0.0067,0.0077,0.0073,0.0084,0.0177,0.0177,0.0178,0.012,0.0117,0.0115,0,0,0,0,0,-0.0245,-0.0245,-0.0236,-0.0227,-0.016,-0.0105,-0.0094,-0.0063,-0.0066,-0.0057,-0.0025,-0.0008,0.0078,0.0071,0.0082,0.0079,0.0176,0.0177,0.0178,0.0122,0.0118,0.0115,0,0,0,0,0,0,-0.0302,-0.0239,-0.0229,-0.0212,-0.0169,-0.01,-0.0097,-0.0073,-0.0039,-0.0048,0.0001,0.0012,0.0038,0.0071,0.0061,0.0112,0.0129,0.0132,0.0082,0.0079,0.0076,0.0054,0.0088,0,0,0,0,0,-0.0317,-0.0302,-0.0237,-0.023,-0.0211,-0.0158,-0.0139,-0.0113,-0.007,-0.0057,-0.0021,0.0017,0.0055,0.0074,0.0113,0.0144,0.0179,0.0149,0.0146,0.0143,0.0134,0.0202,0.0204,0.0181,0.0181,0.0181,0,0,-0.0343,-0.0306,-0.0301,-0.0242,-0.021,-0.018,-0.0149,-0.0122,-0.0104,-0.0053,-0.0031,0.0006,0.0061,0.0094,0.0108,0.0117,0.0166,0.0144,0.0141,0.0134,0.0203,0.0205,0.0207,0.0182,0.0182,0.0182,0,0,-0.0373,-0.0349,-0.0341,-0.0302,-0.0254,-0.0214,-0.0212,-0.0149,-0.0132,-0.0097,-0.006,-0.0024,0.0032,0.0075,0.0103,0.0111,0.0148,0.0117,0.0087,0.0152,0.0154,0.0157,0.019,0.0196,0.0117,0.0117,0.0117,0,-0.041,-0.0384,-0.0334,-0.0309,-0.0291,-0.0234,-0.0222,-0.0184,-0.0122,-0.0113,-0.0103,-0.0016,0.0025,0.0076,0.0074,0.0103,0.0134,0.0091,0.0147,0.015,0.0154,0.0188,0.0196,0.0115,0.0115,0.0115,0.0115,0,-0.042,-0.0403,-0.0397,-0.0348,-0.032,-0.0301,-0.0241,-0.0223,-0.0203,-0.0164,-0.0123,-0.0054,-0.0004,0.0016,0.0044,0.0089,0.01,0.0133,0.015,0.0152,0.0189,0.0197,0.0111,0.0112,0.0112,0.0113,0,0,-0.0486,-0.0419,-0.0419,-0.0415,-0.0343,-0.0326,-0.0298,-0.0257,-0.0253,-0.0192,-0.0172,-0.0103,-0.0071,-0.0036,0.0015,0.0068,0.0114,0.0098,0.0103,0.0121,0.0234,0.0259,0.0271,0.0157,0.0158,0.0159,0.0244,0,-0.0514,-0.0497,-0.0447,-0.0444,-0.0433,-0.0377,-0.0359,-0.0319,-0.0278,-0.024,-0.0166,-0.0124,-0.0085,-0.0065,-0.0004,0.0088,0.0136,0.0086,0.0239,0.0243,0.0257,0.0283,0.0249,0.0324,0.0253,0.0254,0.0256,0,-0.0536,-0.0524,-0.0527,-0.0504,-0.0497,-0.049,-0.0471,-0.0442,-0.0366,-0.0333,-0.0267,-0.0197,-0.0112,-0.0075,0.0077,0.0041,0.0123,0.0195,0.0201,0.025,0.0285,0.0316,0.0343,0.0271,0.0269,0.0268,0.0267,0,-0.0615,-0.0584,-0.0602,-0.0588,-0.0544,-0.0559,-0.0546,-0.0488,-0.0465,-0.0388,-0.0356,-0.0242,-0.0178,-0.0057,0.009,0.0084,0.026,0.028,0.0378,0.038,0.0395,0.0396,0.0387,0.0386,0.0386,0.0386,0.0386,0,-0.0653,-0.0672,-0.0651,-0.0658,-0.0704,-0.0646,-0.067,-0.0638,-0.0563,-0.0529,-0.0416,-0.0349,-0.0168,-0.0038,0.0082,0.0257,0.0261,0.0374,0.0413,0.0373,0.037,0.0361,0.0357,0.0389,0.0388,0.0388,0.0387,0,-0.0727,-0.0703,-0.0735,-0.0728,-0.0739,-0.078,-0.0757,-0.0748,-0.0679,-0.0623,-0.0595,-0.0419,-0.025,-0.007,0.0142,0.025,0.0411,0.047,0.0394,0.0423,0.0481,0.0473,0.0582,0.0584,0.0586,0.0587,0.0588,0,-0.076,-0.0781,-0.0814,-0.0853,-0.086,-0.0895,-0.0901,-0.0829,-0.0795,-0.0659,-0.0625,-0.0446,-0.0297,0.0015,0.023,0.045,0.0457,0.0545,0.0537,0.0479,0.0506,0.0495,0.0485,0.0526,0.0526,0.0527,0.0527,0,-0.0824,-0.0844,-0.0862,-0.0953,-0.0988,-0.1011,-0.1011,-0.0984,-0.0872,-0.0796,-0.0649,-0.0519,-0.0218,0.0041,0.0323,0.0447,0.0506,0.056,0.0547,0.048,0.0433,0.0456,0.0447,0.053,0.053,0.053,0.053,0.0529,-0.0876,-0.0918,-0.0953,-0.1043,-0.1097,-0.1118,-0.1098,-0.1042,-0.0965,-0.0802,-0.0679,-0.0454,-0.0219,0.0197,0.039,0.0569,0.0567,0.0615,0.0611,0.0607,0.0584,0.0543,0.0654,0.0655,0.0655,0.0655,0.0655,0,-0.0918,-0.0971,-0.1044,-0.1105,-0.1168,-0.1191,-0.1156,-0.1086,-0.0976,-0.0802,-0.0638,-0.0351,-0.0061,0.0183,0.0468,0.0635,0.0615,0.0659,0.0598,0.0594,0.059,0.0564,0.063,0.0631,0.0631,0.0632,0,0,-0.093,-0.1008,-0.1041,-0.1149,-0.1209,-0.1215,-0.119,-0.1086,-0.0948,-0.0744,-0.0559,-0.0334,-0.0039,0.0157,0.0359,0.0506,0.0507,0.0518,0.052,0.0418,0.0413,0.0546,0.0499,0,0,0,0,0]}],[{"header":{"parameterUnit":"m.s-1","parameterCategory":2,"la1":30.2991,"la2":30.254,"lo1":-89.0895,"lo2":-89.0444,"dy":0.0017,"dx":0.0017,"nx":28,"ny":28,"refTime":"2025-12-17T03:00:00:Z","depth":"4","parameterNumber":2,"parameterNumberName":"U-component_of_CURRENTS"},"data":[0,0,0,0,0,0,0,0,0,0,0,0,0,0,0,0,0,0,0,0,0,0,0,0,0,0,0,0,0,0,0,0,0,0,0,0,0,0,0,0,0,0,0,0,0,0,0,0,0,0,0,0,0,0,0,0,0,0,-0.1026,-0.1027,0,-0.1073,-0.1073,-0.1074,-0.1104,-0.1104,-0.1105,-0.1105,-0.1153,-0.1154,-0.1155,0,0,0,0,0,0,0,0,0,0,0,0,0,-0.0952,-0.0953,-0.1026,-0.1027,-0.1028,-0.1073,-0.1073,-0.1074,-0.1104,-0.1104,-0.1105,-0.1105,-0.1153,-0.1154,-0.1155,0,0,0,0,0,0,0,0,0,0,0,0,0,-0.0989,-0.0954,-0.1026,-0.1049,-0.1052,-0.1073,-0.1073,-0.1074,-0.1104,-0.1104,-0.1105,-0.1105,-0.1153,-0.1154,-0.1156,-0.1154,0,0,-0.116,-0.1161,0,0,0,0,0,0,0,0,-0.0987,-0.0991,-0.1045,-0.1048,-0.1051,-0.1085,-0.1065,-0.1101,-0.1104,-0.1082,-0.1105,-0.1106,-0.1131,-0.1134,-0.114,-0.1156,-0.1158,-0.116,-0.1161,-0.1162,-0.1162,0,0,0,0,0,0,0,-0.0984,-0.0989,-0.1043,-0.1046,-0.1049,-0.1054,-0.106,-0.1072,-0.1102,-0.1084,-0.1087,-0.1095,-0.1133,-0.1138,-0.1141,-0.1159,-0.116,-0.1161,-0.1162,-0.1163,-0.123,-0.1231,0,0,0,0,0,0,-0.0982,-0.0987,-0.1041,-0.1044,-0.1021,-0.1055,-0.1061,-0.1072,-0.1102,-0.1108,-0.1094,-0.1096,-0.1136,-0.1139,-0.1143,-0.1196,-0.1162,-0.1163,-0.1164,-0.123,-0.1231,-0.1232,0,0,0,0,0,0,-0.098,-0.0986,-0.104,-0.1018,-0.1025,-0.1056,-0.1067,-0.1073,-0.1099,-0.111,-0.1115,-0.1118,-0.1136,-0.1141,-0.1173,-0.1197,-0.1164,-0.1165,-0.1228,-0.123,-0.1231,-0.1269,0,0,0,0,0,0,-0.0978,-0.0985,-0.0998,-0.1018,-0.1026,-0.1066,-0.1067,-0.1073,-0.1102,-0.1106,-0.1132,-0.1136,-0.1137,-0.1171,-0.1175,-0.1198,-0.1166,-0.1227,-0.1229,-0.1231,-0.1267,-0.1272,-0.1276,0,0,0,0,0,-0.0975,-0.0989,-0.0998,-0.1005,-0.1041,-0.1067,-0.1072,-0.1094,-0.1103,-0.1119,-0.1138,-0.1136,-0.1185,-0.1173,-0.1177,-0.1201,-0.1226,-0.1229,-0.1231,-0.1265,-0.1271,-0.1276,0,0,0,0,0,0,-0.0965,-0.0994,-0.1005,-0.1028,-0.1053,-0.1073,-0.1091,-0.1105,-0.1132,-0.114,-0.1148,-0.1154,-0.119,-0.119,-0.1177,-0.1226,-0.1205,-0.1208,-0.123,-0.1235,-0.124,-0.1238,-0.1167,0,0,0,0,0,-0.0968,-0.0987,-0.1014,-0.1034,-0.1049,-0.1073,-0.1089,-0.1106,-0.1129,-0.1142,-0.116,-0.1179,-0.1197,-0.1213,-0.1226,-0.1254,-0.1268,-0.1272,-0.1277,-0.128,-0.1281,-0.1327,-0.1336,-0.1239,-0.1239,-0.1239,0,0,-0.097,-0.0989,-0.1,-0.1034,-0.1054,-0.1079,-0.1085,-0.1116,-0.1141,-0.1142,-0.1184,-0.1196,-0.1208,-0.124,-0.1256,-0.1246,-0.1317,-0.1283,-0.1286,-0.1285,-0.133,-0.134,-0.1348,-0.124,-0.124,-0.124,0,0,-0.0978,-0.1001,-0.1019,-0.1042,-0.1079,-0.1095,-0.1109,-0.1142,-0.1164,-0.12,-0.1208,-0.1236,-0.1265,-0.128,-0.1289,-0.1327,-0.1338,-0.1334,-0.1359,-0.1404,-0.1413,-0.142,-0.1457,-0.1467,-0.1338,-0.1339,-0.1339,0,-0.098,-0.1007,-0.1029,-0.1053,-0.1077,-0.1105,-0.1132,-0.1156,-0.1197,-0.122,-0.122,-0.1277,-0.1283,-0.1326,-0.1335,-0.1338,-0.1364,-0.1338,-0.1411,-0.1419,-0.1426,-0.1461,-0.1472,-0.1341,-0.134,-0.134,-0.134,0,-0.0998,-0.1027,-0.1042,-0.1082,-0.1109,-0.1139,-0.1174,-0.1207,-0.1235,-0.126,-0.1313,-0.1326,-0.136,-0.1367,-0.1361,-0.1416,-0.1419,-0.1411,-0.1397,-0.1438,-0.1472,-0.1483,-0.1344,-0.1343,-0.1342,-0.1342,0,0,-0.0981,-0.1043,-0.105,-0.1079,-0.1129,-0.1155,-0.12,-0.125,-0.129,-0.1326,-0.1379,-0.1403,-0.1416,-0.1427,-0.1432,-0.1464,-0.1531,-0.146,-0.1461,-0.1496,-0.1635,-0.1491,-0.1489,-0.1544,-0.1546,-0.1547,-0.1642,0,-0.0992,-0.1039,-0.107,-0.1124,-0.1153,-0.1197,-0.124,-0.129,-0.1329,-0.1385,-0.1415,-0.1462,-0.1439,-0.1463,-0.1492,-0.1523,-0.1561,-0.1506,-0.159,-0.1592,-0.1459,-0.1496,-0.1553,-0.165,-0.1652,-0.1654,-0.1655,0,-0.0994,-0.103,-0.1081,-0.1155,-0.1174,-0.1209,-0.1287,-0.1332,-0.1408,-0.1442,-0.149,-0.1516,-0.1569,-0.1544,-0.1622,-0.1592,-0.1616,-0.1635,-0.1639,-0.1495,-0.1466,-0.1599,-0.1675,-0.1673,-0.1672,-0.1671,-0.1669,0,-0.0963,-0.1038,-0.1082,-0.1106,-0.119,-0.1225,-0.1274,-0.1347,-0.1397,-0.1483,-0.1529,-0.1588,-0.1639,-0.1671,-0.1691,-0.1675,-0.1774,-0.1759,-0.1656,-0.1647,-0.1734,-0.1724,-0.1822,-0.1822,-0.1822,-0.1821,-0.1821,0,-0.0951,-0.0989,-0.1074,-0.1095,-0.116,-0.1222,-0.1293,-0.1348,-0.1433,-0.15,-0.1558,-0.161,-0.1678,-0.173,-0.1731,-0.1715,-0.181,-0.1662,-0.1659,-0.1748,-0.1739,-0.1742,-0.1731,-0.1825,-0.1824,-0.1823,-0.1823,0,-0.0905,-0.0962,-0.102,-0.1112,-0.1144,-0.1192,-0.1296,-0.1335,-0.1434,-0.1523,-0.1558,-0.1661,-0.1714,-0.1753,-0.1822,-0.1763,-0.1763,-0.1738,-0.1835,-0.1836,-0.1602,-0.1593,-0.1636,-0.1632,-0.1628,-0.1625,-0.1622,0,-0.0885,-0.0908,-0.1017,-0.1044,-0.1085,-0.1164,-0.1205,-0.1317,-0.1361,-0.1537,-0.1565,-0.167,-0.1717,-0.1698,-0.1741,-0.1731,-0.1705,-0.1707,-0.1636,-0.1589,-0.1583,-0.1579,-0.1575,-0.1616,-0.1616,-0.1615,-0.1614,0,-0.0838,-0.0885,-0.0934,-0.0986,-0.1034,-0.1097,-0.1168,-0.1205,-0.1347,-0.1456,-0.1528,-0.1557,-0.1617,-0.1626,-0.1626,-0.1617,-0.1698,-0.1668,-0.1675,-0.1608,-0.1566,-0.1563,-0.1563,-0.1601,-0.1603,-0.1604,-0.1605,0,-0.0803,-0.0824,-0.0877,-0.0918,-0.0974,-0.1002,-0.1065,-0.1122,-0.1196,-0.1387,-0.1413,-0.1516,-0.1618,-0.1569,-0.1571,-0.1536,-0.1507,-0.1457,-0.1475,-0.1489,-0.1387,-0.1308,-0.1265,0,0,0,0,0,-0.0753,-0.0759,-0.0792,-0.0835,-0.0882,-0.091,-0.102,-0.1087,-0.1246,-0.1253,-0.1329,-0.137,-0.1386,-0.1431,-0.136,-0.1485,-0.1501,-0.1396,-0.1451,-0.1529,-0.1544,-0.1432,0,0,0,0,0,0,-0.0721,-0.0748,-0.0764,-0.0746,-0.0749,-0.0795,-0.0863,-0.0971,-0.0984,-0.1147,-0.115,-0.1265,-0.128,-0.139,-0.1322,-0.1332,-0.1335,-0.1453,-0.1449,-0.1521,-0.1535,-0.1546,-0.1436,0,0,0,0,0]},{"header":{"parameterUnit":"m.s-1","parameterCategory":2,"la1":30.2991,"la2":30.254,"lo1":-89.0895,"lo2":-89.0444,"dy":0.0017,"dx":0.0017,"nx":28,"ny":28,"refTime":"2025-12-17T03:00:00:Z","depth":"4","parameterNumber":3,"parameterNumberName":"V-component_of_CURRENTS"},"data":[0,0,0,0,0,0,0,0,0,0,0,0,0,0,0,0,0,0,0,0,0,0,0,0,0,0,0,0,0,0,0,0,0,0,0,0,0,0,0,0,0,0,0,0,0,0,0,0,0,0,0,0,0,0,0,0,0,0,-0.0045,-0.0044,0,-0.0008,-0.0007,-0.0007,0.001,0.0009,0.0009,0.0009,0.006,0.0061,0.0063,0,0,0,0,0,0,0,0,0,0,0,0,0,-0.0068,-0.0068,-0.0045,-0.0044,-0.0044,-0.0008,-0.0007,-0.0007,0.001,0.0009,0.0009,0.0009,0.006,0.0061,0.0063,0,0,0,0,0,0,0,0,0,0,0,0,0,-0.0047,-0.0068,-0.0045,-0.0032,-0.003,-0.0008,-0.0007,-0.0007,0.001,0.0009,0.0009,0.0009,0.0059,0.0061,0.0063,0.0079,0,0,0.007,0.0071,0,0,0,0,0,0,0,0,-0.0048,-0.0046,-0.0034,-0.0033,-0.0031,-0.0004,0.0003,0.0023,0.001,-0.0005,0.0009,0.0009,0.004,0.0043,0.0051,0.0082,0.0084,0.007,0.0071,0.0072,0.0073,0,0,0,0,0,0,0,-0.005,-0.0047,-0.003,-0.0034,-0.0032,-0.0017,-0.0014,0.0007,0.0018,-0.0004,-0.0003,0.0001,0.0041,0.0049,0.0052,0.0084,0.007,0.0072,0.0073,0.0074,0.0142,0.0142,0,0,0,0,0,0,-0.0057,-0.0049,-0.0031,-0.0029,-0.0041,-0.0016,-0.0013,-0.0012,0.0018,0.0022,0.0001,0.0001,0.0045,0.005,0.0054,0.0076,0.0072,0.0074,0.0075,0.0141,0.0142,0.0143,0,0,0,0,0,0,-0.0057,-0.0056,-0.0032,-0.0038,-0.0034,-0.0016,-0.0015,-0.0012,-0.0003,0.0021,0.0026,0.0006,0.0045,0.0051,0.0075,0.0078,0.0075,0.0077,0.0141,0.0142,0.0142,0.012,0,0,0,0,0,0,-0.0058,-0.0056,-0.0058,-0.0039,-0.0034,-0.0021,-0.0015,-0.0011,-0.0001,-0.0,0.0027,0.0031,0.0046,0.0071,0.0077,0.0081,0.0079,0.014,0.0141,0.0142,0.012,0.012,0.0119,0,0,0,0,0,-0.0059,-0.006,-0.0058,-0.0056,-0.0037,-0.0021,-0.0017,-0.0004,-0.0001,0.0003,0.0023,0.003,0.0081,0.0073,0.008,0.0085,0.014,0.0141,0.0142,0.012,0.012,0.0119,0,0,0,0,0,0,-0.0069,-0.0058,-0.0055,-0.0053,-0.0039,-0.0019,-0.0014,-0.0005,0.0014,0.0015,0.0037,0.0043,0.0065,0.0081,0.0071,0.0109,0.0112,0.0115,0.0093,0.0093,0.0093,0.0072,0.0081,0,0,0,0,0,-0.0073,-0.0073,-0.0057,-0.0056,-0.005,-0.0032,-0.0024,-0.0016,0.0003,0.0011,0.003,0.0053,0.0075,0.0088,0.0109,0.013,0.0146,0.0138,0.0138,0.0138,0.0126,0.0154,0.0155,0.0146,0.0146,0.0146,0,0,-0.0077,-0.0071,-0.0071,-0.0058,-0.0047,-0.0042,-0.0028,-0.0017,-0.0012,0.0014,0.0029,0.0053,0.0081,0.0103,0.0114,0.0116,0.0153,0.0139,0.0138,0.0126,0.0155,0.0156,0.0156,0.0147,0.0147,0.0147,0,0,-0.0085,-0.0079,-0.0082,-0.0073,-0.0059,-0.0048,-0.0046,-0.0025,-0.0015,0.0004,0.0024,0.0047,0.0083,0.0101,0.0116,0.0129,0.015,0.014,0.0122,0.015,0.0151,0.0151,0.0186,0.019,0.0141,0.0141,0.0141,0,-0.0091,-0.0093,-0.0079,-0.0078,-0.0076,-0.0053,-0.0056,-0.0039,-0.0012,-0.001,0.0005,0.0051,0.008,0.0099,0.0108,0.0126,0.0148,0.0119,0.0148,0.0149,0.015,0.0186,0.019,0.014,0.014,0.014,0.014,0,-0.01,-0.0102,-0.0102,-0.0097,-0.0091,-0.0088,-0.0068,-0.006,-0.0045,-0.0031,-0.0009,0.0033,0.0055,0.0077,0.0098,0.0119,0.0135,0.0143,0.0144,0.0149,0.0187,0.0192,0.0139,0.0139,0.0139,0.014,0,0,-0.0114,-0.0111,-0.0112,-0.0124,-0.0104,-0.0107,-0.0096,-0.0089,-0.0097,-0.0056,-0.0059,-0.0005,0.0013,0.0031,0.0065,0.0095,0.0134,0.0121,0.0123,0.0147,0.0202,0.0192,0.0196,0.0148,0.0148,0.0148,0.0231,0,-0.0128,-0.0143,-0.0132,-0.0151,-0.0159,-0.0143,-0.0144,-0.0134,-0.0116,-0.0109,-0.0062,-0.0046,-0.0001,0.0009,0.0047,0.0108,0.0144,0.0111,0.0201,0.0203,0.0186,0.02,0.015,0.0235,0.0236,0.0237,0.0237,0,-0.0142,-0.0153,-0.0173,-0.0198,-0.0202,-0.0207,-0.0222,-0.0217,-0.0195,-0.0182,-0.0151,-0.0115,-0.0062,-0.0027,0.0079,0.0056,0.0124,0.0176,0.0181,0.0176,0.0201,0.0227,0.0246,0.0246,0.0245,0.0244,0.0244,0,-0.0171,-0.0187,-0.0212,-0.0215,-0.0229,-0.0243,-0.0251,-0.0241,-0.0253,-0.0225,-0.0227,-0.016,-0.0125,-0.0038,0.0081,0.0079,0.0199,0.0209,0.0265,0.0266,0.026,0.0259,0.0278,0.0278,0.0278,0.0278,0.0278,0,-0.0192,-0.0214,-0.0232,-0.0246,-0.0296,-0.0284,-0.0326,-0.0323,-0.0316,-0.0332,-0.0266,-0.0249,-0.0126,-0.0041,0.0064,0.0183,0.0191,0.0259,0.0282,0.0252,0.0249,0.0265,0.0262,0.0281,0.028,0.028,0.0279,0,-0.0217,-0.0221,-0.0262,-0.0292,-0.031,-0.0344,-0.0385,-0.041,-0.0391,-0.0405,-0.0398,-0.031,-0.0194,-0.0068,0.0085,0.0157,0.0272,0.0314,0.0278,0.0299,0.0325,0.0321,0.0372,0.0372,0.0373,0.0373,0.0373,0,-0.0229,-0.0248,-0.0307,-0.0346,-0.0362,-0.0411,-0.0448,-0.045,-0.0465,-0.0436,-0.0438,-0.0338,-0.0266,-0.005,0.0084,0.027,0.0296,0.035,0.0329,0.0316,0.0333,0.0328,0.0324,0.0373,0.0373,0.0373,0.0373,0,-0.0259,-0.0279,-0.0317,-0.0396,-0.0446,-0.0505,-0.0543,-0.0563,-0.0554,-0.0543,-0.0464,-0.0354,-0.0223,-0.0051,0.0093,0.0228,0.0306,0.0352,0.0352,0.0333,0.0318,0.0334,0.0329,0.0374,0.0374,0.0374,0.0374,0,-0.0283,-0.0323,-0.0376,-0.0447,-0.0515,-0.0568,-0.0591,-0.0589,-0.0595,-0.0547,-0.0514,-0.0364,-0.0268,-0.0071,0.0066,0.0189,0.0215,0.0244,0.025,0.0251,0.0187,0.0148,0.0169,0,0,0,0,0,-0.03,-0.0352,-0.0427,-0.05,-0.0565,-0.0601,-0.0643,-0.0647,-0.0636,-0.0588,-0.0549,-0.042,-0.0212,-0.0108,0.0014,0.0054,0.0222,0.0197,0.0255,0.0377,0.0377,0.032,0,0,0,0,0,0,-0.0315,-0.0382,-0.043,-0.0525,-0.058,-0.0646,-0.0672,-0.0666,-0.0624,-0.0589,-0.0466,-0.0402,-0.0188,-0.0278,0.0015,0.0053,0.0102,0.0301,0.0304,0.0378,0.0377,0.0377,0.0318,0,0,0,0,0]}]]